Location: Hains Lake
(37.8540°N, 99.8578°W)
Time: 15:44:40
(UTC+00:00)

Vanguard 1 - Pass Details

Date: 05 December 2021
Orbit: 652 x 3830 km, 34.2° (Epoch: 22 January)

Event Time Altitude Azimuth Distance (km) Brightness Sun altitude
Exits shadow 08:01:22 45° 96° (E) 4,244 13.1 -65.1°
Drops below altitude 10° 08:11:31 10° 89° (E) 5,744 14.2 -63.3°
Sets 08:15:09 0° 89° (E) 6,433 14.6 -62.7°
